DMSP F-14

operational
NORAD ID: 24753 Int'l Des: 1997-012 Owner: AFSMC Country: US
LEOCIRCULARRETROGRADESSO

About DMSP F-14

Description loading...

Live Position

Loading 3D Globe...

Upcoming Passes

Altitude History

Altitude vs Time

uPlot chart will show altitude changes over time

Two-Line Element Set

1 24753U 97012A 26062.10382792 .00000199 00000-0 12151-3 0 9990
2 24753 98.7731 112.2377 0009230 41.0123 319.1744 14.16731214493270
Epoch: Mar 3, 2026 • Age: 10 hours

Current Status

Altitude 842.9 km
Velocity 7.43 km/s
Sub-Earth Point 9.14°N, 18.35°W
Launch Date Apr 4, 1997
Age 28.9 years
Type other

Technical Details

Classification Payload
Mass 749.00 kg
Dry Mass 749.00 kg
Total Mass 1456.00 kg
Length 3.40 m
Diameter 1.20 m
Span 5.00 m
Shape Box + Pan
Manufacturer LMTEW
Bus Type Block 5D
Phase Status In Orbit
Owner/State AFSMC/US

Large Constellations

Loading constellations...